Terug naar catalogus

FENGYUN 1C DEB

ActiefSSO
NORAD 32198·DEBRIS·🇨🇳 China

Gelanceerd May 10, 1999 vanaf Taiyuan Satellite Launch Center

Loading…

Volgende Passages (komende 24 uur)

TLE

VerouderendSource: Space-Track

Epoch: Sep 8, 2026, 03:04 UTC

1 32198U 99025CUU 26251.12813970  .00002099  00000-0  11546-2 0  9994
2 32198  98.3579  23.7150 0093519 239.3842 119.8083 14.10440602607412

Volg FENGYUN 1C DEB in realtime met AllMySat

Download on the App Store